SCP
0 0 0 0 0 0 0 1 1 4 6 6 4 4 3 2 1 0 1 1 0 0 0 0 2 1 1 1 1 1 1 0 0 0 0 0 0 0 0 0 0 0 0
0 0 0 0 0 0 0 1 4 6 7 5 4 5 3 2 1 1 1 1 0 1 0 2 2 1 0 1 1 1 0 0 0 0 0 0 0 0 0 0 0 0 0
0 0 0 0 0 0 0 0 4 5 6 5 5 5 3 3 1 1 1 1 1 0 1 1 1 2 2 1 1 1 1 0 0 0 0 0 0 0 0 0 0 0 0
0 0 0 0 0 0 0 0 3 4 4 5 4 3 4 3 3 1 1 1 1 0 0 1 1 2 1 3 1 1 1 1 1 0 0 0 0 0 0 0 0 0 0
0 0 0 0 0 0 0 0 3 3 3 4 4 6 3 4 4 2 3 1 2 1 0 1 2 1 1 2 2 0 0 0 0 0 0 0 0 0 0 0 0 0 0
0 0 0 0 0 0 0 0 2 3 4 3 4 4 3 3 3 3 4 1 1 1 1 1 2 2 2 1 0 0 0 0 0 0 0 0 0 0 0 0 0 0 0
0 0 0 0 0 0 0 0 2 3 3 3 3 4 4 5 6 5 3 2 1 1 3 3 3 1 1 0 0 0 0 0 0 0 0 0 0 0 0 0 0 0 0
-0 0 0 0 0 0 0 0 1 2 2 3 3 4 6 4 3 4 3 2 2 2 3 3 2 0 0 0 0 0 0 0 0 0 0 0 0 0 0 0 0 0 0
-0 -0 0 0 0 0 0 0 0 1 2 2 3 4 5 4 3 3 4 2 3 5 4 2 0 0 0 0 0 0 0 0 0 0 0 0 0 0 0 0 0 0 0
-0 0 -0 0 0 0 0 0 1 1 2 3 3 4 4 3 4 4 3 3 5 5 1 0 0 0 0 0 0 0 0 0 0 0 0 0 0 0 0 0 0 0 0
0 -0 -0 0 0 0 0 1 1 1 2 2 3 3 4 3 4 4 4 7 5 0 0 0 0 0 0 0 0 0 0 0 0 0 0 0 0 0 0 0 0 0 0
-0 0 -0 0 0 0 0 1 0 1 1 2 2 2 4 5 6 4 4 0 0 0 0 0 0 0 0 0 0 0 0 0 0 0 0 0 0 0 0 0 0 0 0
-0 -1 -0 0 0 0 1 1 1 1 1 2 1 3 1 0 0 0 0 0 0 0 0 0 0 0 0 0 0 0 0 0 0 0 0 0 0 0 0 0 0 0 0
-0 -0 -1 0 0 1 1 1 0 1 1 2 1 0 0 0 0 0 0 0 0 0 0 0 0 0 0 0 0 0 0 0 0 0 0 0 0 0 0 0 0 0 0
-0 -0 -0 0 0 0 0 1 1 1 1 1 0 0 0 0 0 0 0 0 0 0 0 0 0 0 0 0 0 0 0 0 0 0 0 0 0 0 0 0 0 0 0
-0 -0 -0 -0 0 0 0 0 1 1 0 0 0 0 0 0 0 0 0 0 0 0 0 0 0 0 0 0 0 0 0 0 0 0 0 0 0 0 0 0 0 0 0
-0 -0 -0 -0 0 0 0 0 0 0 0 0 0 0 0 0 0 0 0 0 0 0 0 0 0 0 0 0 0 0 0 0 0 0 0 0 0 0 0 0 -0 0 0
-0 -0 -0 -0 -0 0 0 0 0 0 0 0 0 0 0 0 0 0 0 0 0 0 0 0 0 0 0 0 0 0 0 0 0 -0 0 0 0 0 0 -0 0 0 0
-0 -0 -0 0 0 0 -0 -0 0 0 0 0 0 0 0 0 0 0 0 0 0 0 0 0 0 0 0 0 0 0 0 0 -0 -0 0 0 0 0 0 0 0 0 0
-0 0 -0 -0 0 0 -0 0 0 0 0 0 0 0 0 0 0 0 -0 0 0 0 0 0 0 0 0 0 0 0 0 0 -0 0 0 0 0 -0 0 0 0 0 0
0 0 0 0 -0 0 -0 -0 0 0 0 0 0 0 0 0 0 0 0 0 0 0 0 0 0 0 0 0 0 0 0 0 0 0 0 0 -0 -0 -0 -0 0 0 0
0 0 -0 -0 -0 0 -0 0 0 0 0 0 0 0 0 0 0 0 0 0 0 0 0 0 0 0 0 0 0 -0 -0 0 0 0 0 0 -0 -0 -0 0 0 0 0
0 -0 -0 -0 0 0 0 0 0 0 0 0 0 0 -0 0 0 0 0 0 0 0 0 0 0 0 0 0 0 -0 0 0 0 0 0 -0 -0 -0 -0 -0 -0 0 0
-0 0 -0 0 0 0 0 0 0 0 0 0 0 0 0 0 0 0 0 0 0 0 0 0 0 0 0 -0 -0 0 0 0 0 0 0 -0 -0 -0 -0 0 0 0 0
-0 0 0 -0 -0 0 0 0 0 0 0 0 0 0 0 0 0 0 0 0 0 0 0 0 0 0 -0 0 0 0 0 0 -0 -0 0 0 0 0 0 0 0 0 0
0 0 0 0 0 0 0 0 0 0 0 0 0 0 0 0 0 0 0 0 0 0 -0 0 0 -0 -0 -0 -0 0 0 0 -0 0 0 0 0 0 0 0 0 0 0
Wind_Speed_500mb
61 65 65 62 62 61 59 57 69 70 72 76 84 78 70 63 58 53 53 54 51 48 54 38 41 36 27 24 26 20 17 12 13 14 20 22 28 20 11 12 12 15 22
44 55 62 64 65 59 63 58 69 69 77 75 80 81 75 66 62 55 54 55 52 58 55 43 35 36 25 27 25 21 14 11 13 10 17 20 14 13 17 10 15 16 23
39 43 55 60 63 63 61 66 64 72 80 80 77 87 69 65 66 60 54 55 54 54 53 47 32 36 32 22 22 18 18 14 8 16 7 13 16 27 10 20 12 15 24
61 56 45 56 63 66 66 72 64 81 83 88 74 86 79 76 72 64 54 53 56 51 53 47 36 39 30 29 20 23 13 17 12 4 6 9 14 11 16 19 26 25 29
68 64 56 54 66 69 69 67 68 74 85 91 83 91 81 74 70 64 59 56 57 55 46 41 41 34 31 34 31 20 17 7 8 6 6 10 11 10 18 31 25 29 29
69 68 63 63 65 72 73 69 71 70 78 91 87 90 89 76 71 69 64 55 51 51 50 45 42 38 43 33 31 21 19 15 12 4 3 1 5 12 18 26 30 34 32
73 66 54 59 70 75 76 72 69 70 72 87 90 86 88 72 67 74 63 62 54 51 53 53 51 50 47 33 26 25 20 16 10 13 4 6 7 10 16 21 27 32 32
74 63 61 45 66 72 75 74 72 67 64 76 82 85 84 71 67 70 68 62 58 56 57 56 51 50 43 35 29 23 18 14 10 10 5 8 10 13 15 18 25 33 30
84 83 36 32 49 63 73 72 72 64 57 67 74 82 79 76 68 71 65 60 56 59 58 56 56 46 40 34 30 25 17 10 8 5 2 4 12 13 16 17 19 21 30
79 53 85 22 42 55 56 63 56 54 59 67 73 75 72 73 66 68 64 61 59 63 60 59 53 49 44 39 31 27 21 15 9 4 7 7 13 14 15 16 18 19 24
95 104 30 23 36 47 61 51 50 56 63 68 62 64 67 61 54 59 60 63 70 62 68 59 53 49 45 39 29 24 23 18 9 8 12 15 10 12 13 14 16 18 23
71 74 23 28 37 49 59 51 48 52 58 63 58 62 63 61 65 65 68 78 70 69 63 58 54 52 46 39 32 29 22 17 12 13 11 10 12 11 16 15 22 20 23
65 66 6 33 46 53 53 48 49 52 58 72 63 66 68 74 76 82 83 80 78 69 61 58 56 52 42 34 32 24 20 18 15 13 4 7 8 13 14 16 18 20 24
63 65 45 23 48 38 32 43 47 55 61 70 58 72 73 63 69 74 68 65 59 59 58 57 53 45 39 38 32 25 16 20 11 9 5 9 10 15 19 18 24 30 30
70 67 50 31 25 9 26 39 40 49 59 71 62 80 52 66 80 69 57 56 64 67 65 65 61 55 46 37 28 23 17 17 14 10 12 12 15 19 19 26 29 32 33
72 65 37 25 4 21 15 30 45 51 66 71 73 69 75 77 62 60 68 78 76 73 71 66 65 60 50 43 35 28 20 17 16 11 15 12 16 18 20 21 29 36 41
69 61 44 18 16 15 4 21 25 57 62 72 80 88 88 84 80 73 76 71 68 68 65 64 59 57 49 40 27 18 18 19 15 12 10 11 14 19 20 26 29 33 38
64 60 48 33 17 15 15 16 16 54 69 62 61 64 65 70 77 74 69 74 72 73 72 63 56 48 44 38 30 28 26 23 18 15 14 14 18 22 26 32 26 23 21
56 47 42 34 23 14 15 15 18 45 71 67 60 57 46 59 59 75 85 87 88 83 76 67 57 51 51 46 43 33 28 23 22 19 18 19 21 28 31 34 33 30 29
48 38 31 31 23 9 14 24 37 44 43 51 54 55 50 58 80 92 96 93 86 80 72 61 52 52 51 45 46 31 23 22 18 17 21 23 28 32 36 41 42 37 41
38 38 33 23 17 13 11 35 48 50 49 64 65 65 72 86 97 97 93 90 83 78 71 65 56 50 46 45 44 37 22 20 17 12 14 25 28 33 41 46 43 45 48
29 31 29 24 14 10 5 21 36 47 54 58 64 70 82 92 93 96 91 85 81 74 67 59 54 46 42 38 35 28 31 30 21 17 22 29 27 39 46 50 50 50 41
30 24 21 13 11 7 5 17 25 32 44 54 66 77 87 90 87 85 85 80 69 66 52 41 47 46 41 38 34 31 27 26 27 31 36 37 47 43 39 50 52 44 41
36 32 19 7 7 10 14 24 37 44 58 71 85 92 94 93 85 78 70 65 56 44 42 42 45 45 41 36 33 28 24 25 24 33 38 38 40 40 38 36 39 42 41
26 25 17 10 9 14 25 37 49 59 78 91 95 95 92 90 84 75 58 47 42 37 41 40 40 39 36 36 33 24 25 34 36 31 25 28 29 32 36 37 40 41 41
20 19 14 12 14 21 33 41 55 75 90 95 98 98 95 85 79 74 65 54 52 51 46 46 41 48 46 44 37 36 39 41 36 29 30 29 31 35 35 38 40 40 45
Wind_Direction_500mb
268 259 255 254 246 237 236 239 228 216 210 213 203 201 202 201 201 200 197 203 192 195 190 192 196 196 197 200 216 225 239 249 273 294 291 274 271 279 273 276 286 298 312
286 271 258 250 246 234 234 231 224 218 212 211 209 203 198 204 200 198 197 197 191 196 195 185 195 195 197 196 212 207 215 246 276 287 288 293 254 260 300 264 294 300 310
288 278 270 249 241 235 233 231 223 219 217 207 212 204 201 204 199 196 193 200 193 199 195 185 193 206 190 209 209 221 216 241 242 290 288 308 310 319 285 302 299 279 326
308 291 263 253 239 237 231 230 226 222 221 210 204 200 201 198 194 195 198 194 187 194 191 186 188 201 187 206 208 211 204 216 252 253 289 290 301 318 311 306 314 330 330
297 284 273 251 245 236 231 228 226 226 220 212 206 206 199 195 193 194 195 190 186 193 184 183 193 189 181 198 198 205 182 207 195 239 271 291 295 316 318 314 315 315 318
297 283 266 256 246 240 228 220 222 222 220 214 208 200 196 195 189 189 186 190 186 182 178 186 188 185 193 203 198 205 203 193 176 163 98 321 326 327 321 315 320 319 322
294 282 279 262 242 232 224 215 213 216 221 212 203 198 197 196 191 186 189 184 182 178 185 184 187 188 197 199 196 198 196 202 200 164 74 51 20 2 332 327 324 325 328
298 288 281 263 243 220 219 209 205 211 217 212 206 201 194 193 193 189 187 186 182 182 189 184 188 194 194 194 189 187 199 194 205 192 191 55 18 360 357 348 335 335 331
305 302 266 257 229 211 211 203 202 205 212 209 204 197 192 188 190 188 185 185 180 180 189 179 191 183 183 180 179 176 179 166 152 186 145 36 1 359 4 354 343 339 324
322 310 288 212 203 200 195 204 188 204 210 206 199 193 188 186 187 183 183 182 175 182 179 178 180 170 168 175 174 163 154 139 113 46 11 338 11 1 6 350 348 332 327
324 318 205 203 191 193 190 180 189 198 206 202 191 189 181 179 181 179 173 171 181 181 175 179 171 173 173 172 178 166 151 130 112 49 22 5 355 14 11 3 337 342 329
319 306 134 176 191 195 188 183 191 198 197 200 189 185 174 177 166 171 175 176 177 172 179 169 170 164 168 167 164 152 134 126 103 53 349 355 6 30 3 7 343 336 340
334 336 123 165 183 192 176 180 185 192 195 198 179 181 175 181 174 180 175 180 181 180 177 174 167 165 156 152 142 136 135 108 63 41 16 23 20 19 17 19 357 349 352
345 338 335 128 230 177 158 182 195 191 193 191 179 174 175 182 183 182 180 180 181 179 172 166 165 160 155 151 137 125 118 80 91 113 54 44 35 31 28 25 16 11 13
351 353 335 352 61 149 143 186 195 188 180 180 176 168 168 181 174 168 172 176 172 168 167 163 160 159 152 140 137 129 102 108 138 111 66 42 34 34 27 28 21 18 14
347 353 8 359 157 299 179 191 198 177 185 184 166 174 184 185 180 172 167 169 169 166 164 160 152 142 131 123 111 101 109 125 105 99 72 15 31 18 20 20 27 19 13
347 352 10 48 174 83 143 163 151 174 168 176 166 165 166 168 169 167 163 165 164 158 147 140 141 137 131 128 118 132 136 137 124 123 107 59 23 24 25 35 17 7 1
355 359 13 25 58 118 103 85 145 167 171 166 162 154 154 157 159 158 161 160 157 152 148 140 137 140 128 122 129 145 141 140 126 104 87 57 35 35 33 38 22 22 4
1 5 0 12 23 54 99 76 189 193 158 155 155 154 155 156 159 156 154 153 150 146 144 141 141 136 134 137 143 131 129 119 107 89 71 59 46 38 34 37 30 18 356
3 18 18 357 17 58 84 347 227 206 175 157 156 157 176 174 160 153 149 150 147 140 137 136 140 135 131 139 124 118 121 111 93 69 63 53 48 37 35 37 28 21 22
8 14 24 33 28 28 157 163 162 159 166 167 164 157 160 159 157 151 147 144 140 138 136 138 134 135 135 131 129 126 116 106 109 98 54 48 43 40 37 35 30 31 22
0 15 19 33 29 21 254 174 152 148 157 160 157 155 154 153 151 146 142 140 138 139 136 135 131 131 131 133 133 130 137 131 119 97 70 53 44 37 37 34 32 25 16
7 17 22 26 66 74 166 191 169 160 155 150 148 151 149 145 142 140 139 139 138 130 124 125 123 126 126 123 117 112 108 102 94 75 62 51 42 39 25 19 25 19 10
356 8 24 20 87 126 149 173 166 163 154 149 146 145 143 141 138 133 131 127 125 130 131 128 125 123 114 106 102 95 89 87 66 51 43 42 39 30 29 24 22 17 9
353 3 53 86 113 155 155 164 160 158 151 144 142 140 136 130 124 117 114 126 130 133 130 127 126 132 140 131 122 115 104 95 82 70 58 50 40 35 29 23 22 13 9
358 6 43 93 133 146 146 156 161 156 147 132 127 132 129 124 127 134 133 131 135 141 144 140 134 126 118 110 107 100 94 89 79 69 58 50 41 36 26 23 20 11 11
Wind_Speed_850mb
61 65 65 62 62 61 59 57 69 70 72 76 84 78 70 63 58 53 53 54 51 48 54 38 41 36 27 24 26 20 17 12 13 14 20 22 28 20 11 12 12 15 22
44 55 62 64 65 59 63 58 69 69 77 75 80 81 75 66 62 55 54 55 52 58 55 43 35 36 25 27 25 21 14 11 13 10 17 20 14 13 17 10 15 16 23
39 43 55 60 63 63 61 66 64 72 80 80 77 87 69 65 66 60 54 55 54 54 53 47 32 36 32 22 22 18 18 14 8 16 7 13 16 27 10 20 12 15 24
61 56 45 56 63 66 66 72 64 81 83 88 74 86 79 76 72 64 54 53 56 51 53 47 36 39 30 29 20 23 13 17 12 4 6 9 14 11 16 19 26 25 29
68 64 56 54 66 69 69 67 68 74 85 91 83 91 81 74 70 64 59 56 57 55 46 41 41 34 31 34 31 20 17 7 8 6 6 10 11 10 18 31 25 29 29
69 68 63 63 65 72 73 69 71 70 78 91 87 90 89 76 71 69 64 55 51 51 50 45 42 38 43 33 31 21 19 15 12 4 3 1 5 12 18 26 30 34 32
73 66 54 59 70 75 76 72 69 70 72 87 90 86 88 72 67 74 63 62 54 51 53 53 51 50 47 33 26 25 20 16 10 13 4 6 7 10 16 21 27 32 32
74 63 61 45 66 72 75 74 72 67 64 76 82 85 84 71 67 70 68 62 58 56 57 56 51 50 43 35 29 23 18 14 10 10 5 8 10 13 15 18 25 33 30
84 83 36 32 49 63 73 72 72 64 57 67 74 82 79 76 68 71 65 60 56 59 58 56 56 46 40 34 30 25 17 10 8 5 2 4 12 13 16 17 19 21 30
79 53 85 22 42 55 56 63 56 54 59 67 73 75 72 73 66 68 64 61 59 63 60 59 53 49 44 39 31 27 21 15 9 4 7 7 13 14 15 16 18 19 24
95 104 30 23 36 47 61 51 50 56 63 68 62 64 67 61 54 59 60 63 70 62 68 59 53 49 45 39 29 24 23 18 9 8 12 15 10 12 13 14 16 18 23
71 74 23 28 37 49 59 51 48 52 58 63 58 62 63 61 65 65 68 78 70 69 63 58 54 52 46 39 32 29 22 17 12 13 11 10 12 11 16 15 22 20 23
65 66 6 33 46 53 53 48 49 52 58 72 63 66 68 74 76 82 83 80 78 69 61 58 56 52 42 34 32 24 20 18 15 13 4 7 8 13 14 16 18 20 24
63 65 45 23 48 38 32 43 47 55 61 70 58 72 73 63 69 74 68 65 59 59 58 57 53 45 39 38 32 25 16 20 11 9 5 9 10 15 19 18 24 30 30
70 67 50 31 25 9 26 39 40 49 59 71 62 80 52 66 80 69 57 56 64 67 65 65 61 55 46 37 28 23 17 17 14 10 12 12 15 19 19 26 29 32 33
72 65 37 25 4 21 15 30 45 51 66 71 73 69 75 77 62 60 68 78 76 73 71 66 65 60 50 43 35 28 20 17 16 11 15 12 16 18 20 21 29 36 41
69 61 44 18 16 15 4 21 25 57 62 72 80 88 88 84 80 73 76 71 68 68 65 64 59 57 49 40 27 18 18 19 15 12 10 11 14 19 20 26 29 33 38
64 60 48 33 17 15 15 16 16 54 69 62 61 64 65 70 77 74 69 74 72 73 72 63 56 48 44 38 30 28 26 23 18 15 14 14 18 22 26 32 26 23 21
56 47 42 34 23 14 15 15 18 45 71 67 60 57 46 59 59 75 85 87 88 83 76 67 57 51 51 46 43 33 28 23 22 19 18 19 21 28 31 34 33 30 29
48 38 31 31 23 9 14 24 37 44 43 51 54 55 50 58 80 92 96 93 86 80 72 61 52 52 51 45 46 31 23 22 18 17 21 23 28 32 36 41 42 37 41
38 38 33 23 17 13 11 35 48 50 49 64 65 65 72 86 97 97 93 90 83 78 71 65 56 50 46 45 44 37 22 20 17 12 14 25 28 33 41 46 43 45 48
29 31 29 24 14 10 5 21 36 47 54 58 64 70 82 92 93 96 91 85 81 74 67 59 54 46 42 38 35 28 31 30 21 17 22 29 27 39 46 50 50 50 41
30 24 21 13 11 7 5 17 25 32 44 54 66 77 87 90 87 85 85 80 69 66 52 41 47 46 41 38 34 31 27 26 27 31 36 37 47 43 39 50 52 44 41
36 32 19 7 7 10 14 24 37 44 58 71 85 92 94 93 85 78 70 65 56 44 42 42 45 45 41 36 33 28 24 25 24 33 38 38 40 40 38 36 39 42 41
26 25 17 10 9 14 25 37 49 59 78 91 95 95 92 90 84 75 58 47 42 37 41 40 40 39 36 36 33 24 25 34 36 31 25 28 29 32 36 37 40 41 41
20 19 14 12 14 21 33 41 55 75 90 95 98 98 95 85 79 74 65 54 52 51 46 46 41 48 46 44 37 36 39 41 36 29 30 29 31 35 35 38 40 40 45
Wind_Direction_850mb
268 259 255 254 246 237 236 239 228 216 210 213 203 201 202 201 201 200 197 203 192 195 190 192 196 196 197 200 216 225 239 249 273 294 291 274 271 279 273 276 286 298 312
286 271 258 250 246 234 234 231 224 218 212 211 209 203 198 204 200 198 197 197 191 196 195 185 195 195 197 196 212 207 215 246 276 287 288 293 254 260 300 264 294 300 310
288 278 270 249 241 235 233 231 223 219 217 207 212 204 201 204 199 196 193 200 193 199 195 185 193 206 190 209 209 221 216 241 242 290 288 308 310 319 285 302 299 279 326
308 291 263 253 239 237 231 230 226 222 221 210 204 200 201 198 194 195 198 194 187 194 191 186 188 201 187 206 208 211 204 216 252 253 289 290 301 318 311 306 314 330 330
297 284 273 251 245 236 231 228 226 226 220 212 206 206 199 195 193 194 195 190 186 193 184 183 193 189 181 198 198 205 182 207 195 239 271 291 295 316 318 314 315 315 318
297 283 266 256 246 240 228 220 222 222 220 214 208 200 196 195 189 189 186 190 186 182 178 186 188 185 193 203 198 205 203 193 176 163 98 321 326 327 321 315 320 319 322
294 282 279 262 242 232 224 215 213 216 221 212 203 198 197 196 191 186 189 184 182 178 185 184 187 188 197 199 196 198 196 202 200 164 74 51 20 2 332 327 324 325 328
298 288 281 263 243 220 219 209 205 211 217 212 206 201 194 193 193 189 187 186 182 182 189 184 188 194 194 194 189 187 199 194 205 192 191 55 18 360 357 348 335 335 331
305 302 266 257 229 211 211 203 202 205 212 209 204 197 192 188 190 188 185 185 180 180 189 179 191 183 183 180 179 176 179 166 152 186 145 36 1 359 4 354 343 339 324
322 310 288 212 203 200 195 204 188 204 210 206 199 193 188 186 187 183 183 182 175 182 179 178 180 170 168 175 174 163 154 139 113 46 11 338 11 1 6 350 348 332 327
324 318 205 203 191 193 190 180 189 198 206 202 191 189 181 179 181 179 173 171 181 181 175 179 171 173 173 172 178 166 151 130 112 49 22 5 355 14 11 3 337 342 329
319 306 134 176 191 195 188 183 191 198 197 200 189 185 174 177 166 171 175 176 177 172 179 169 170 164 168 167 164 152 134 126 103 53 349 355 6 30 3 7 343 336 340
334 336 123 165 183 192 176 180 185 192 195 198 179 181 175 181 174 180 175 180 181 180 177 174 167 165 156 152 142 136 135 108 63 41 16 23 20 19 17 19 357 349 352
345 338 335 128 230 177 158 182 195 191 193 191 179 174 175 182 183 182 180 180 181 179 172 166 165 160 155 151 137 125 118 80 91 113 54 44 35 31 28 25 16 11 13
351 353 335 352 61 149 143 186 195 188 180 180 176 168 168 181 174 168 172 176 172 168 167 163 160 159 152 140 137 129 102 108 138 111 66 42 34 34 27 28 21 18 14
347 353 8 359 157 299 179 191 198 177 185 184 166 174 184 185 180 172 167 169 169 166 164 160 152 142 131 123 111 101 109 125 105 99 72 15 31 18 20 20 27 19 13
347 352 10 48 174 83 143 163 151 174 168 176 166 165 166 168 169 167 163 165 164 158 147 140 141 137 131 128 118 132 136 137 124 123 107 59 23 24 25 35 17 7 1
355 359 13 25 58 118 103 85 145 167 171 166 162 154 154 157 159 158 161 160 157 152 148 140 137 140 128 122 129 145 141 140 126 104 87 57 35 35 33 38 22 22 4
1 5 0 12 23 54 99 76 189 193 158 155 155 154 155 156 159 156 154 153 150 146 144 141 141 136 134 137 143 131 129 119 107 89 71 59 46 38 34 37 30 18 356
3 18 18 357 17 58 84 347 227 206 175 157 156 157 176 174 160 153 149 150 147 140 137 136 140 135 131 139 124 118 121 111 93 69 63 53 48 37 35 37 28 21 22
8 14 24 33 28 28 157 163 162 159 166 167 164 157 160 159 157 151 147 144 140 138 136 138 134 135 135 131 129 126 116 106 109 98 54 48 43 40 37 35 30 31 22
0 15 19 33 29 21 254 174 152 148 157 160 157 155 154 153 151 146 142 140 138 139 136 135 131 131 131 133 133 130 137 131 119 97 70 53 44 37 37 34 32 25 16
7 17 22 26 66 74 166 191 169 160 155 150 148 151 149 145 142 140 139 139 138 130 124 125 123 126 126 123 117 112 108 102 94 75 62 51 42 39 25 19 25 19 10
356 8 24 20 87 126 149 173 166 163 154 149 146 145 143 141 138 133 131 127 125 130 131 128 125 123 114 106 102 95 89 87 66 51 43 42 39 30 29 24 22 17 9
353 3 53 86 113 155 155 164 160 158 151 144 142 140 136 130 124 117 114 126 130 133 130 127 126 132 140 131 122 115 104 95 82 70 58 50 40 35 29 23 22 13 9
358 6 43 93 133 146 146 156 161 156 147 132 127 132 129 124 127 134 133 131 135 141 144 140 134 126 118 110 107 100 94 89 79 69 58 50 41 36 26 23 20 11 11